Dewpoint
5 -2 -8 -8 -5 -1 2 3 3 4 4 3 3 1 -1 -2 -2 -2 -3 -7 -11 -8 -1 2 -1 -2 -1 -3 -4 -4 -3 -2 -2 -2 -4 -5 -3 -3 -3 -3 -4 -2 -1 -0 2
11 8 -1 -6 -8 -6 -1 2 3 3 4 3 3 1 -1 -2 -2 -3 -6 -8 -13 -0 3 3 -0 2 2 -2 -3 -3 -2 -2 -4 -4 -4 -4 -3 -2 -2 -2 -2 -2 -2 1 2
10 11 9 -1 -4 -8 -6 -1 2 3 4 3 2 1 -1 -1 -1 -5 1 -1 -12 -5 0 2 1 3 2 1 -1 -1 -0 -3 -3 -3 -3 -2 -2 -2 -1 -1 -1 -0 -0 -1 3
10 10 10 8 -0 -3 -8 -5 0 2 3 3 3 0 -1 -0 0 1 0 1 -0 -2 1 2 3 3 1 1 -0 0 -1 -1 -2 -0 1 -1 -0 0 -0 -0 -0 -0 -1 -1 -1
8 9 10 10 9 0 -4 -8 -4 2 3 3 2 0 -1 2 -1 2 1 -2 1 2 2 3 2 2 2 1 2 3 2 2 2 2 1 1 1 1 0 0 -0 -1 -1 -1 -1
6 8 9 10 10 6 1 -5 -7 -2 3 3 2 -0 1 6 -3 -4 -4 2 2 3 2 2 3 3 3 3 3 2 2 2 2 2 1 1 1 1 1 -0 -1 -1 -1 -2 -1
4 7 8 9 10 10 2 1 -6 -4 2 3 2 0 4 0 -3 -1 1 4 5 4 3 3 4 4 4 4 3 3 3 2 2 2 1 1 2 2 -0 -1 -1 -3 -3 -2 -2
4 5 7 8 8 10 10 3 -2 -3 2 3 1 2 6 -0 -3 -2 4 5 5 5 4 4 4 3 3 4 3 3 2 5 2 1 1 1 3 0 -1 -1 -3 -4 -3 -2 -2
3 4 6 7 7 8 9 5 2 -1 3 3 2 5 5 1 -2 -4 -1 3 5 5 4 4 4 4 3 4 5 3 6 4 2 -1 1 1 2 -0 -2 -1 -5 -5 -1 1 2
1 4 6 6 7 7 9 8 4 4 4 5 6 6 3 4 -1 -3 -4 -2 1 4 4 5 4 3 4 5 8 6 5 3 3 0 -1 -1 -2 -4 -7 -4 -5 -5 -2 2 3
-1 1 5 6 6 7 8 7 6 6 6 4 4 3 2 -1 3 2 -0 -1 1 5 6 4 5 6 5 4 3 3 3 3 1 -0 -0 -0 -2 -4 -5 -3 -4 -4 1 2 1
1 1 3 5 6 6 7 7 4 2 6 5 4 4 -2 1 3 2 2 3 5 7 5 5 7 4 3 3 4 4 5 5 2 0 0 -0 -1 -3 -3 -2 -2 -1 2 1 1
-1 1 2 3 6 6 7 5 5 2 4 5 4 5 5 3 4 2 3 5 4 6 6 7 5 4 4 4 5 5 5 5 4 1 -1 -1 0 -1 -1 0 1 1 1 0 -0
-8 -1 -1 4 5 6 6 4 6 5 5 4 6 4 3 4 4 1 3 5 4 6 6 6 4 5 5 5 4 6 2 2 2 1 3 -1 4 -0 1 0 -1 -1 -1 -1 -1
-6 -4 -1 3 5 5 5 4 6 5 6 2 4 3 1 3 -1 2 2 3 4 5 5 6 6 5 6 5 3 4 1 2 1 2 2 2 3 1 -1 2 -1 -4 -4 -4 -6
-3 -4 -2 2 4 5 5 4 6 5 6 4 3 5 4 3 1 -1 2 3 2 4 4 5 4 5 5 3 3 3 1 2 2 3 7 3 3 3 1 0 -1 -5 -6 -6 -7
-4 -3 -3 -1 3 4 5 6 6 6 4 4 4 5 3 5 3 1 2 5 6 8 8 6 5 4 1 4 2 0 3 9 9 7 8 3 3 2 -0 -1 -3 -5 -6 -6 -11
-4 -3 -4 -3 -0 3 5 6 6 6 5 1 2 5 5 3 3 3 2 5 5 5 6 9 9 5 3 2 3 3 2 8 11 8 6 1 4 2 -2 -4 -5 -6 -9 -13 -14
-4 -3 -3 -7 -3 1 2 6 6 5 3 3 3 6 5 4 3 3 3 4 4 4 4 7 7 2 2 1 1 3 4 2 6 8 9 4 0 -3 -6 -7 -8 -9 -11 -12 -13
-2 -1 -3 -6 -3 0 2 4 4 4 2 2 6 5 6 4 3 4 4 2 3 3 1 5 7 3 2 1 1 2 0 5 9 10 10 7 3 3 -4 -5 -6 -7 -9 -11 -13
-1 -1 -2 -4 -2 1 2 4 3 4 3 3 5 5 5 6 5 3 3 3 2 3 3 3 5 5 3 4 4 2 3 4 6 7 7 8 7 2 -3 -5 -6 -8 -9 -12 -13
-1 -0 -2 -1 1 0 2 3 3 4 3 3 2 5 6 5 6 5 3 2 3 2 5 3 6 7 5 2 2 2 2 4 7 5 5 5 5 -5 -4 -5 -7 -9 -10 -11 -10
-1 -1 -2 0 1 1 1 2 3 4 3 4 5 3 3 6 6 5 6 4 3 4 4 4 7 8 8 6 2 1 3 2 4 4 4 7 5 -4 -5 -6 -9 -9 -9 -10 -11
-1 -0 -1 -1 -0 -0 -0 1 3 3 3 3 4 5 3 6 7 5 5 4 1 3 3 3 6 7 8 5 4 2 3 2 3 5 4 5 0 -3 -3 -6 -8 -9 -10 -10 -12
-1 -0 -2 -1 -0 -0 1 2 3 4 4 3 5 5 3 7 7 8 5 2 1 0 4 5 8 7 5 5 3 2 2 3 3 2 5 3 1 -4 -3 -6 -8 -9 -10 -11 -11
-1 -0 0 -2 -2 -1 0 2 4 4 4 5 6 5 4 5 5 7 6 4 3 1 2 2 6 5 6 6 5 4 1 3 3 2 2 1 1 -5 -6 -3 -6 -10 -11 -10 -9
-1 -0 -1 -1 -1 -0 0 2 2 4 3 4 4 5 5 4 3 4 3 3 2 2 3 3 4 6 6 5 5 6 4 2 2 2 2 3 -0 -3 -3 -4 -8 -11 -10 -8 -9
Wind_Speed
29 31 32 32 31 30 29 27 25 24 22 20 19 19 19 20 20 20 23 15 12 10 11 8 7 7 8 8 11 7 2 3 5 4 5 8 3 1 2 9 5 6 6 11 1
30 31 32 33 33 32 30 29 27 25 23 21 20 19 18 19 21 25 21 20 16 13 11 10 10 7 6 6 6 5 4 8 7 4 8 14 6 4 4 3 2 13 14 9 3
34 32 32 33 33 33 32 31 29 27 25 23 21 19 17 15 19 13 7 11 17 16 14 12 9 8 8 6 13 5 6 4 18 25 24 15 21 11 4 3 7 11 14 15 10
34 36 34 33 34 33 33 32 30 29 26 23 22 19 16 11 6 4 9 5 8 15 15 12 10 4 3 5 4 2 11 10 12 11 10 6 12 11 4 13 17 21 21 23 19
38 33 36 34 34 34 32 33 31 29 27 24 22 20 16 13 23 10 7 9 5 6 11 12 8 4 3 4 5 5 5 9 17 25 20 14 8 9 19 22 22 26 27 25 23
41 40 35 39 35 34 34 32 32 30 28 25 23 21 19 14 25 20 25 12 11 10 12 12 6 4 9 8 4 7 13 14 16 23 18 10 6 11 21 27 25 30 31 19 12
40 38 36 35 37 36 34 33 32 30 28 26 24 22 26 36 11 12 18 13 11 12 10 10 8 9 4 3 7 8 5 7 11 11 8 12 6 8 29 27 29 24 16 16 9
28 41 34 34 39 35 35 34 30 29 27 26 23 22 21 28 31 28 17 19 19 17 14 11 8 6 4 6 6 4 1 4 4 5 13 3 11 22 30 18 14 4 14 10 9
27 28 39 35 28 34 35 32 29 28 26 24 22 18 17 11 35 36 32 27 21 19 19 14 7 4 0 3 4 1 5 5 9 4 6 7 7 12 23 20 19 10 15 20 21
30 28 25 40 41 33 33 30 27 26 24 18 19 6 28 17 29 33 32 35 29 18 17 13 8 4 3 4 8 7 5 5 7 3 4 6 8 7 11 13 17 13 14 22 22
29 31 25 26 35 31 30 39 23 17 37 24 15 15 4 27 11 8 24 33 26 14 10 18 6 11 14 20 13 5 5 5 7 11 4 7 7 10 12 6 13 5 24 26 24
22 28 28 26 25 29 34 36 51 16 11 43 23 38 39 7 7 12 22 20 18 17 13 5 22 17 18 13 12 13 12 14 9 11 6 8 8 10 8 6 10 19 30 31 27
20 24 29 30 27 33 43 44 35 11 7 22 56 35 30 28 16 23 31 23 17 15 20 22 7 19 17 15 14 16 15 14 11 7 4 3 9 5 1 8 10 13 29 29 26
22 20 22 25 28 32 47 35 41 24 4 11 17 24 38 20 11 37 25 26 7 20 17 17 23 10 17 21 17 16 15 15 8 4 4 4 9 5 3 6 7 19 24 22 23
21 20 17 17 18 30 39 34 36 30 8 9 20 12 35 32 14 28 31 30 14 14 12 12 18 27 19 18 19 11 8 9 6 3 1 3 5 5 11 7 7 8 24 24 21
22 19 17 26 27 27 35 49 32 7 9 6 18 19 19 30 18 17 35 29 18 11 20 17 16 16 12 19 18 8 4 2 2 3 10 6 6 10 12 11 12 11 22 21 19
22 20 18 19 26 21 33 38 10 9 8 9 13 24 29 16 24 13 26 22 16 15 20 12 25 14 4 13 8 7 8 2 3 2 8 10 12 19 4 4 18 14 22 20 17
21 21 23 26 29 35 28 14 15 9 11 5 12 24 24 16 24 19 27 22 27 23 12 17 11 25 14 17 6 7 13 7 7 5 4 10 7 4 1 23 25 24 22 18 16
20 24 30 30 27 30 18 19 16 9 16 5 14 24 19 16 14 21 28 35 31 30 16 16 18 4 19 19 15 6 14 11 7 4 1 4 3 5 9 14 17 18 18 13 10
20 21 35 29 23 25 9 15 7 10 9 12 14 20 24 25 14 23 26 25 26 32 19 5 1 10 17 12 21 23 8 5 4 6 7 5 6 7 9 9 8 8 13 10 9
18 11 17 13 20 14 7 4 4 20 9 20 12 15 19 24 19 24 18 9 31 28 24 6 5 4 10 17 21 8 12 5 9 6 5 3 7 9 14 10 9 8 10 9 7
17 7 10 16 7 3 9 3 6 14 26 10 10 8 13 22 22 20 26 21 24 26 34 29 3 8 11 4 2 21 18 16 9 7 6 4 5 5 10 9 11 11 9 9 15
11 12 12 20 6 9 2 6 8 17 22 9 9 12 3 15 16 21 16 3 13 21 27 20 7 6 7 8 3 8 18 20 6 4 11 11 5 8 8 8 14 10 8 15 10
12 4 13 23 19 9 15 14 7 21 22 20 11 5 11 5 2 11 18 2 1 6 30 26 9 21 21 8 9 8 14 20 17 11 8 14 7 12 8 10 8 6 12 10 7
15 7 11 7 15 20 14 12 14 9 11 27 16 17 22 8 4 16 9 2 4 8 6 19 20 15 2 3 4 14 15 19 23 29 17 16 11 20 10 8 4 13 17 14 10
8 9 13 12 14 23 22 16 19 9 12 23 14 23 17 22 18 6 5 4 5 3 3 1 1 6 5 2 3 3 14 14 17 15 17 9 5 9 14 7 3 13 15 16 10
24 15 15 8 15 19 22 21 24 16 9 18 22 22 21 18 10 7 8 7 5 6 2 6 6 7 5 5 7 4 21 22 18 10 9 13 5 7 5 8 19 22 21 15 8
Wind_Direction
252 251 247 248 245 247 248 246 250 254 259 262 269 275 281 286 286 284 273 275 264 230 245 255 262 216 237 251 242 229 83 225 246 220 250 307 32 313 330 331 352 23 25 1 229
255 252 249 247 246 245 247 248 248 250 254 259 264 273 280 290 293 282 278 267 247 230 234 250 256 246 269 238 233 167 174 220 211 219 269 291 273 300 184 258 280 316 319 345 217
249 253 250 247 246 246 245 247 248 248 252 256 260 265 276 291 305 289 282 257 222 223 237 249 244 277 253 244 222 211 225 243 269 274 286 291 300 309 306 235 281 291 308 311 229
247 247 251 247 245 244 244 245 246 248 248 254 258 260 265 269 252 144 71 37 210 227 231 223 223 231 236 235 220 239 255 249 281 286 313 290 326 329 278 286 312 306 305 295 282
253 247 246 247 246 242 241 243 243 245 246 248 255 257 257 243 235 220 255 315 280 187 202 201 220 231 221 239 325 218 252 282 295 303 314 302 278 273 285 292 297 292 291 284 282
253 251 248 240 241 242 240 240 240 241 244 245 248 252 246 241 254 249 256 252 242 230 228 221 208 239 285 254 200 270 298 305 304 296 301 276 285 297 283 293 286 289 286 277 185
248 250 248 248 237 239 239 236 237 236 239 242 244 246 248 239 236 228 213 213 218 232 241 217 249 263 300 270 293 305 312 314 270 271 266 302 306 265 285 284 284 281 255 171 179
262 249 248 239 243 235 236 235 233 233 233 237 241 244 250 254 245 235 206 216 205 209 231 235 265 262 258 288 342 350 299 290 266 226 263 161 278 271 273 275 234 188 157 148 139
265 262 248 243 248 238 231 230 228 228 227 231 233 233 264 245 235 235 225 226 216 215 219 232 257 213 125 90 1 274 254 239 310 237 226 154 261 268 291 250 238 196 129 130 129
260 255 257 239 254 243 225 213 217 217 214 218 221 216 244 231 236 238 222 224 224 216 237 241 219 151 126 147 223 201 218 226 231 235 148 294 262 272 299 207 230 223 137 140 132
261 255 250 244 250 245 229 194 176 210 202 191 202 204 309 229 160 222 217 214 215 217 198 197 186 200 198 208 204 187 221 224 253 264 304 259 269 285 290 279 254 246 149 139 130
271 256 251 249 250 241 225 191 197 199 198 220 224 217 226 134 311 233 201 177 185 205 188 190 223 203 216 218 218 235 248 258 278 262 229 274 270 262 261 277 270 175 155 144 137
284 268 245 244 254 236 212 213 209 182 207 209 222 223 220 235 236 239 194 189 190 195 203 209 171 207 209 217 217 226 223 241 243 270 245 257 279 279 131 66 102 158 155 142 137
283 279 264 244 249 232 208 226 222 207 253 208 197 235 216 212 246 226 208 180 185 207 201 231 222 205 203 216 206 231 219 238 253 196 235 156 280 282 128 84 87 122 140 141 132
282 284 277 239 242 223 227 220 222 212 225 212 193 196 194 194 150 204 199 194 188 170 185 211 186 207 221 209 206 224 187 190 183 196 174 231 282 245 229 159 173 145 137 137 130
281 291 279 243 235 250 228 211 208 189 227 245 162 171 155 202 205 168 197 205 198 199 220 214 184 194 201 217 212 187 179 79 43 127 254 177 207 250 231 211 170 167 150 140 134
280 286 272 262 246 242 208 179 206 209 148 218 190 170 180 179 200 185 187 194 186 198 217 209 230 241 167 210 188 165 134 47 314 208 256 207 230 240 253 205 166 161 152 142 132
276 280 274 259 236 229 208 197 222 161 183 216 183 168 189 162 198 191 181 194 206 197 192 208 214 213 202 210 183 185 182 178 222 210 242 209 243 259 17 123 132 140 132 120 113
275 275 271 256 247 241 239 209 215 159 197 202 160 166 190 187 168 195 193 198 194 194 195 199 228 181 204 206 179 196 212 193 217 63 321 229 131 35 75 95 113 126 118 107 103
271 278 269 264 258 248 229 231 188 184 177 210 186 182 185 185 180 193 190 210 202 199 196 184 212 195 202 192 211 213 147 131 89 197 229 237 210 178 168 145 142 137 133 118 111
257 257 282 264 226 226 239 258 192 218 199 190 206 186 197 181 199 199 196 203 200 193 202 176 147 246 141 201 199 183 201 178 166 178 174 190 240 183 163 160 146 146 131 130 124
244 236 244 188 190 185 227 205 236 205 216 210 205 183 186 195 201 196 215 207 190 183 197 207 152 209 199 170 258 216 201 182 182 217 216 155 260 134 143 152 145 147 150 142 144
227 236 226 199 206 217 222 226 220 227 208 196 191 217 146 192 204 209 211 184 177 185 192 182 206 233 291 293 177 221 206 198 111 101 201 198 231 182 163 148 139 147 184 156 142
230 223 202 218 238 223 208 235 218 227 217 210 200 102 188 198 266 218 215 125 80 225 203 177 171 211 223 244 159 188 197 204 193 212 166 216 144 183 169 153 168 142 160 159 144
218 217 196 198 210 221 212 187 209 204 237 196 200 201 192 185 208 228 193 118 34 348 159 180 210 203 156 16 289 201 191 192 198 217 204 214 183 183 165 162 150 133 155 149 135
217 201 198 231 200 211 217 208 197 199 179 198 196 196 199 198 202 187 159 175 187 36 121 353 243 146 194 330 359 221 188 191 208 209 227 164 180 172 153 102 126 176 161 145 138
215 214 221 223 209 197 208 212 213 190 234 198 196 190 202 208 185 113 115 54 103 143 134 142 126 161 196 133 105 266 214 199 203 183 199 205 134 152 139 156 175 169 157 146 136
Height
1497 1499 1501 1504 1506 1508 1511 1512 1515 1516 1517 1518 1518 1519 1518 1516 1515 1513 1510 1512 1512 1512 1513 1514 1514 1515 1515 1515 1515 1516 1525 1531 1520 1513 1506 1501 1503 1502 1501 1500 1500 1500 1499 1499 1496
1490 1493 1495 1498 1500 1502 1506 1508 1510 1512 1514 1515 1515 1516 1515 1513 1511 1507 1507 1506 1507 1509 1510 1511 1512 1514 1513 1511 1512 1512 1522 1517 1505 1503 1501 1497 1499 1498 1499 1498 1498 1497 1497 1495 1495
1484 1486 1489 1491 1493 1496 1499 1503 1506 1508 1510 1511 1512 1512 1513 1512 1509 1502 1501 1500 1501 1505 1508 1509 1510 1511 1511 1508 1507 1507 1510 1503 1500 1500 1500 1497 1494 1492 1492 1492 1493 1492 1493 1494 1491
1475 1479 1483 1484 1486 1489 1493 1497 1500 1503 1505 1507 1509 1509 1509 1510 1512 1499 1499 1499 1500 1502 1504 1506 1508 1509 1508 1506 1504 1507 1500 1501 1496 1498 1498 1498 1494 1491 1490 1487 1487 1486 1488 1488 1488
1468 1470 1473 1476 1479 1483 1486 1490 1494 1498 1501 1502 1505 1506 1505 1505 1497 1498 1497 1499 1501 1501 1502 1503 1504 1505 1505 1503 1503 1502 1498 1497 1495 1492 1492 1492 1491 1491 1487 1484 1484 1483 1484 1483 1483
1458 1463 1463 1469 1472 1474 1479 1484 1488 1492 1496 1498 1499 1502 1502 1497 1492 1495 1496 1497 1499 1500 1500 1501 1501 1503 1502 1501 1502 1498 1496 1494 1492 1489 1489 1487 1486 1486 1482 1482 1481 1479 1477 1478 1480
1450 1453 1457 1458 1463 1466 1472 1478 1483 1486 1491 1493 1495 1496 1492 1480 1488 1487 1490 1492 1495 1497 1498 1499 1500 1501 1500 1499 1498 1497 1499 1495 1489 1486 1485 1484 1486 1480 1476 1478 1478 1474 1472 1476 1478
1444 1446 1447 1450 1453 1457 1464 1472 1476 1481 1485 1488 1491 1491 1478 1476 1483 1484 1486 1488 1490 1492 1495 1497 1499 1498 1499 1499 1498 1499 1498 1504 1485 1481 1478 1485 1490 1472 1470 1474 1474 1473 1472 1475 1475
1436 1437 1440 1442 1447 1448 1456 1465 1470 1477 1479 1484 1487 1487 1473 1470 1467 1473 1481 1485 1487 1489 1491 1494 1496 1496 1498 1501 1508 1503 1508 1502 1493 1477 1479 1481 1484 1466 1466 1470 1471 1471 1473 1473 1475
1430 1431 1431 1433 1441 1443 1444 1457 1465 1472 1474 1480 1482 1487 1468 1460 1461 1461 1471 1479 1484 1486 1489 1490 1493 1495 1497 1503 1507 1504 1506 1498 1495 1478 1477 1478 1479 1469 1466 1466 1467 1468 1472 1474 1476
1422 1424 1426 1426 1434 1435 1438 1439 1462 1466 1459 1450 1454 1453 1450 1449 1456 1456 1461 1470 1479 1481 1482 1483 1490 1490 1488 1483 1484 1489 1492 1493 1485 1475 1478 1479 1478 1471 1464 1465 1466 1469 1468 1471 1475
1415 1416 1417 1420 1423 1429 1427 1427 1430 1437 1451 1450 1452 1452 1450 1451 1455 1450 1457 1463 1469 1471 1476 1483 1473 1475 1475 1481 1485 1487 1491 1490 1481 1473 1475 1473 1473 1467 1461 1459 1460 1463 1465 1466 1470
1410 1410 1412 1414 1419 1421 1418 1423 1437 1441 1439 1434 1435 1440 1443 1450 1449 1443 1451 1453 1455 1466 1464 1464 1457 1468 1475 1477 1481 1481 1482 1481 1483 1471 1469 1468 1468 1465 1460 1458 1456 1458 1462 1464 1466
1405 1405 1405 1409 1414 1411 1409 1419 1432 1441 1435 1419 1428 1421 1434 1441 1435 1438 1444 1449 1453 1457 1461 1460 1459 1461 1466 1467 1471 1477 1464 1470 1473 1477 1487 1465 1477 1466 1461 1463 1460 1459 1464 1467 1467
1399 1399 1399 1402 1400 1401 1406 1415 1423 1431 1419 1406 1403 1405 1411 1426 1418 1423 1436 1442 1442 1446 1454 1441 1445 1452 1456 1453 1459 1460 1456 1462 1466 1472 1475 1473 1481 1459 1451 1466 1464 1463 1464 1467 1469
1393 1393 1393 1393 1392 1393 1401 1408 1414 1416 1399 1394 1385 1392 1407 1407 1410 1417 1425 1434 1435 1439 1435 1436 1435 1441 1440 1444 1448 1449 1456 1460 1462 1472 1479 1475 1475 1448 1450 1446 1460 1463 1465 1466 1467
1387 1387 1387 1387 1383 1391 1392 1398 1395 1379 1396 1386 1375 1378 1380 1397 1411 1407 1414 1422 1419 1437 1434 1436 1434 1432 1432 1440 1445 1446 1457 1485 1495 1490 1477 1459 1464 1438 1437 1435 1446 1455 1461 1464 1466
1381 1380 1377 1376 1379 1382 1383 1381 1367 1368 1374 1360 1367 1374 1379 1385 1396 1395 1403 1413 1410 1408 1421 1432 1438 1423 1422 1426 1438 1446 1444 1471 1485 1492 1471 1449 1452 1441 1433 1436 1448 1455 1461 1463 1464
1374 1372 1367 1366 1372 1374 1380 1355 1351 1354 1353 1362 1361 1371 1377 1375 1380 1388 1385 1382 1387 1391 1410 1422 1420 1408 1413 1421 1429 1441 1443 1436 1454 1467 1482 1458 1452 1450 1445 1447 1452 1456 1459 1461 1461
1366 1364 1355 1361 1366 1367 1366 1359 1350 1346 1348 1356 1357 1358 1363 1366 1374 1373 1376 1368 1377 1382 1394 1404 1419 1404 1407 1417 1419 1421 1428 1453 1473 1479 1475 1455 1447 1449 1452 1452 1453 1455 1455 1457 1459
1362 1359 1348 1354 1362 1364 1349 1345 1352 1344 1343 1345 1349 1349 1354 1355 1361 1364 1355 1364 1371 1379 1391 1395 1404 1412 1402 1407 1407 1422 1428 1433 1448 1461 1467 1467 1445 1430 1441 1445 1447 1449 1450 1453 1455
1354 1350 1349 1349 1355 1352 1351 1348 1346 1340 1339 1341 1340 1344 1347 1348 1356 1361 1353 1354 1357 1368 1383 1378 1400 1408 1400 1406 1407 1402 1408 1417 1437 1457 1450 1455 1448 1433 1436 1440 1442 1444 1448 1450 1453
1343 1343 1345 1346 1342 1343 1344 1342 1341 1339 1332 1336 1336 1335 1339 1349 1358 1351 1354 1353 1354 1358 1363 1380 1395 1411 1414 1408 1406 1406 1403 1404 1426 1440 1446 1441 1442 1435 1436 1438 1441 1443 1445 1449 1450
1336 1333 1335 1339 1335 1336 1337 1337 1335 1332 1326 1327 1327 1332 1341 1354 1352 1353 1350 1355 1355 1356 1358 1366 1379 1383 1380 1382 1386 1404 1398 1395 1407 1421 1429 1416 1433 1434 1434 1436 1439 1439 1441 1444 1447
1321 1312 1315 1319 1321 1324 1327 1323 1329 1324 1324 1318 1326 1331 1332 1354 1357 1351 1347 1354 1357 1358 1355 1359 1371 1384 1390 1388 1382 1378 1386 1389 1393 1384 1408 1401 1417 1421 1428 1433 1434 1437 1441 1443 1443
1307 1303 1305 1299 1303 1314 1317 1310 1311 1316 1315 1309 1313 1324 1331 1333 1339 1350 1348 1353 1354 1361 1360 1365 1373 1384 1389 1396 1393 1385 1381 1388 1386 1390 1393 1403 1416 1415 1423 1428 1432 1434 1436 1439 1440
1295 1293 1296 1290 1300 1306 1301 1299 1302 1306 1311 1305 1308 1321 1325 1323 1332 1340 1344 1351 1349 1354 1364 1365 1378 1383 1391 1399 1400 1399 1376 1376 1378 1385 1393 1402 1407 1411 1416 1424 1428 1431 1432 1433 1433